Wind_Speed
47 49 50 50 46 43 40 40 36 31 27 23 22 21 18 12 12 10 5 4 10 13 7 12 7 11 22 24 24 28 30 31 36 41 43 40 35 30 23 21 20 19 17 16 14
47 49 49 52 49 46 43 42 40 36 30 27 23 23 22 17 13 9 9 5 9 8 8 8 6 6 9 17 19 22 26 27 26 28 36 39 40 34 33 33 36 35 32 32 30
49 49 49 51 50 48 46 43 42 39 34 30 26 25 24 19 16 9 12 10 16 11 7 5 6 7 5 10 17 14 20 22 22 20 26 31 32 34 39 38 40 40 37 39 38
50 49 50 49 52 50 48 47 44 41 37 34 31 29 27 21 18 14 15 13 17 15 7 6 8 6 7 6 12 10 12 18 17 15 18 23 23 28 26 30 31 34 37 38 32
51 49 50 50 52 52 50 48 46 44 41 38 35 32 30 26 23 19 17 17 16 20 19 10 12 3 9 9 3 7 9 12 13 10 9 10 17 22 19 20 24 26 24 24 27
52 50 49 52 52 52 51 50 49 47 44 41 40 36 33 32 27 24 22 23 20 17 22 22 21 10 8 8 7 3 3 5 4 5 7 8 6 14 17 16 13 13 16 23 18
52 52 50 51 53 52 54 51 50 50 48 45 43 41 39 34 31 28 26 26 26 22 18 22 20 20 16 11 5 5 8 6 0 6 4 3 4 2 11 12 13 11 10 10 17
54 53 51 51 54 54 53 54 52 52 50 47 46 44 43 40 35 32 31 29 28 27 25 20 23 20 18 18 21 15 11 9 5 5 6 6 3 3 3 4 8 9 11 10 7
53 54 53 52 53 56 55 55 55 53 52 51 48 48 47 44 42 38 35 34 33 30 28 27 26 28 26 25 22 20 22 14 10 11 13 11 10 6 8 7 5 5 6 7 6
44 51 54 53 52 54 57 55 56 56 56 55 53 51 50 49 47 45 42 39 37 36 35 33 32 31 34 34 32 30 25 20 19 17 18 17 16 15 12 13 13 10 6 4 5
33 43 49 53 55 51 54 58 57 57 58 59 58 56 53 51 50 50 48 46 43 41 40 39 37 38 35 34 35 35 35 33 25 21 22 23 22 17 17 16 15 16 13 10 7
22 33 43 48 51 53 51 52 61 61 62 61 62 60 58 57 55 54 53 51 49 47 45 42 41 42 41 41 40 38 36 35 34 32 27 28 28 25 19 19 19 20 17 16 16
19 24 31 39 46 52 54 54 54 60 65 64 64 65 64 63 62 60 60 59 55 52 51 48 47 45 46 45 44 45 43 40 37 36 35 33 34 31 30 25 24 23 23 23 24
18 21 24 29 36 44 53 57 58 58 58 64 68 68 67 67 66 66 65 63 61 59 56 53 50 53 51 52 49 48 49 46 44 43 43 40 39 36 37 38 36 33 33 32 32
4 10 20 27 31 36 44 50 56 59 61 60 62 68 69 71 71 70 70 69 68 65 64 60 58 57 54 55 56 54 52 53 51 50 49 46 46 43 43 44 44 42 41 39 39
8 10 12 15 24 34 42 47 52 56 60 63 63 65 67 70 73 74 74 73 72 70 70 67 66 64 62 62 62 59 58 58 60 58 54 53 54 50 50 48 47 47 48 43 42
13 13 16 19 23 25 30 39 47 54 59 62 64 65 66 68 69 73 75 75 75 74 74 72 71 71 70 70 70 68 67 66 64 64 63 58 58 57 55 55 54 52 51 49 46
17 19 21 23 25 29 31 36 41 46 51 58 63 66 69 70 71 71 74 76 76 77 78 78 77 76 74 74 73 73 74 73 71 70 69 66 62 61 61 60 61 60 58 58 45
22 23 27 29 32 37 39 42 46 47 50 54 57 64 69 73 72 73 73 74 74 76 78 80 79 80 80 80 79 77 76 77 77 75 74 69 67 65 64 64 64 64 64 58 39
33 34 35 37 40 43 45 50 54 56 54 58 60 60 63 70 75 76 75 74 75 75 75 77 80 82 82 81 84 85 84 83 83 82 80 77 74 72 72 70 70 69 66 60 61
42 41 43 45 47 49 53 56 60 63 66 65 65 65 68 66 68 71 74 77 77 76 74 74 74 76 77 78 80 82 83 84 85 85 84 83 81 80 79 78 76 73 68 61 50
47 52 51 53 53 55 59 64 69 73 77 78 76 75 73 72 69 66 67 71 75 77 74 74 75 75 73 72 73 75 77 78 81 83 83 81 80 77 77 76 76 75 72 72 72
51 54 59 63 61 62 65 70 73 76 79 79 81 83 82 78 73 68 68 68 65 66 70 71 71 73 73 73 72 72 72 73 75 78 80 78 78 77 76 74 74 74 74 74 74
57 60 66 69 69 67 71 68 60 61 64 68 72 79 85 82 77 72 72 69 66 63 62 64 70 73 73 73 73 73 73 73 73 74 76 73 73 72 73 74 75 75 75 75 75
63 67 71 72 72 73 63 57 52 51 56 59 66 68 80 84 79 76 74 71 67 66 65 65 63 63 64 68 69 70 71 72 73 74 76 77 78 77 78 78 78 80 80 79 79
60 69 70 71 75 68 54 41 42 44 49 49 54 60 65 76 79 79 77 73 71 67 67 67 63 57 53 55 59 63 66 69 73 75 78 79 78 80 80 80 81 82 84 84 83
61 65 64 71 74 58 42 35 32 36 39 42 45 51 60 65 74 79 77 73 70 67 69 66 64 59 55 52 52 51 53 57 60 66 71 76 81 83 84 85 85 85 85 85 84
Wind_Direction
209 206 204 204 203 204 208 208 209 214 218 218 223 226 228 223 223 227 232 150 78 74 41 57 49 43 85 71 60 57 63 62 67 79 78 81 78 75 74 79 78 77 76 78 78
210 208 206 207 204 206 207 210 212 216 220 219 223 226 229 231 227 188 202 135 112 77 96 84 326 38 97 83 74 67 66 60 54 59 78 82 83 86 89 91 88 88 86 80 80
212 209 207 209 206 207 209 210 211 215 214 218 221 228 234 234 233 199 197 147 125 127 114 112 109 114 211 66 91 76 62 62 61 53 62 74 85 91 89 88 85 80 77 73 70
213 211 210 211 210 209 211 211 211 213 215 215 220 224 231 230 232 216 200 197 167 158 158 94 119 74 237 42 72 80 69 75 68 64 63 71 72 87 81 85 85 80 75 68 63
214 213 213 213 215 212 214 213 213 213 216 216 217 222 226 227 227 216 208 210 201 190 156 144 114 154 118 89 47 49 52 58 64 59 50 79 80 83 77 74 83 75 71 69 60
215 216 214 215 217 217 216 216 215 214 215 220 218 220 224 228 226 224 220 210 214 211 209 195 176 149 144 147 170 178 253 63 43 20 24 55 81 66 80 76 68 53 59 73 57
216 217 218 217 219 221 220 221 220 218 216 218 223 221 223 227 229 226 226 222 216 216 219 223 230 198 189 205 194 242 235 212 197 304 338 10 63 105 53 56 54 53 45 48 63
218 219 220 220 221 222 223 224 226 225 220 219 223 225 224 228 230 227 225 228 233 233 227 223 223 234 222 221 228 207 232 266 262 265 279 281 196 234 295 356 42 40 26 24 36
220 221 222 224 224 223 225 226 228 230 228 224 225 226 227 228 231 233 230 226 228 230 228 227 223 230 232 230 230 237 242 242 252 244 258 265 260 239 249 259 287 350 3 4 16
224 225 225 227 229 227 225 228 228 230 232 232 231 228 229 231 232 235 234 233 228 229 231 228 230 228 229 234 239 244 250 250 251 253 254 254 259 254 253 278 264 279 301 332 320
228 226 227 230 230 232 232 230 232 232 234 235 236 234 232 233 236 236 237 239 238 233 233 235 232 232 234 236 240 242 247 249 244 249 251 249 246 249 256 265 268 270 274 270 240
234 231 231 231 231 235 237 238 234 236 236 237 238 238 238 237 236 239 239 240 241 241 239 239 243 241 236 236 241 243 245 252 254 248 243 237 234 238 245 244 254 260 270 258 268
241 240 235 235 235 233 236 239 240 240 239 240 242 244 242 242 242 240 240 240 241 243 244 244 245 248 252 244 243 244 242 245 248 250 251 246 239 247 260 261 250 248 255 260 264
243 243 243 243 238 235 239 240 242 242 244 244 243 244 245 247 246 246 245 245 244 243 244 245 244 246 249 253 252 252 250 250 254 252 251 250 250 256 261 266 265 263 267 272 264
275 248 245 244 243 242 242 242 243 243 244 244 245 245 244 246 247 248 250 250 248 248 249 248 247 249 250 251 251 253 256 259 257 257 256 254 255 255 255 260 264 268 268 269 275
251 244 242 246 245 242 244 245 245 244 243 243 244 245 247 246 246 247 248 250 251 252 253 253 252 252 253 254 255 256 257 257 261 257 256 260 262 261 262 262 261 262 266 266 270
292 274 263 256 251 250 248 250 250 249 247 246 246 246 247 247 246 247 249 249 250 251 252 253 253 254 254 256 257 258 259 260 260 262 262 261 265 267 270 270 272 272 270 269 271
306 290 280 271 270 265 262 257 255 253 253 251 249 248 247 247 246 246 246 246 247 250 252 253 253 254 254 255 257 259 261 262 262 263 262 263 264 267 268 270 271 272 273 274 271
305 296 285 278 276 274 270 263 257 257 255 252 249 248 247 248 249 250 247 247 247 247 247 250 252 253 254 255 257 258 259 261 263 263 264 264 265 264 265 267 269 270 272 273 262
311 306 302 290 281 277 274 271 265 261 256 254 251 248 246 246 246 247 249 251 250 248 249 250 251 251 252 254 255 256 258 260 261 262 263 264 264 265 265 264 264 265 266 264 262
314 309 306 303 295 287 281 276 271 265 263 258 251 246 246 245 243 245 247 247 249 250 250 251 252 253 253 253 254 257 258 259 260 260 261 262 263 263 263 264 264 265 263 258 251
312 308 309 307 301 292 287 282 276 271 265 260 252 246 243 241 241 242 243 245 247 248 249 250 250 252 254 255 256 256 257 258 259 260 261 262 262 262 262 261 261 262 262 261 260
313 309 310 309 303 299 293 286 278 270 263 257 248 240 239 238 237 238 241 242 244 246 247 248 249 251 251 251 252 254 256 258 259 261 263 263 264 265 265 266 265 264 264 264 263
315 313 312 310 308 305 300 289 276 264 256 251 244 236 233 234 233 235 238 240 241 243 246 246 247 248 250 251 253 255 257 258 259 261 263 264 264 264 264 263 263 263 263 263 263
314 314 314 312 312 311 302 290 273 260 254 247 242 236 229 229 230 232 235 238 239 241 242 245 247 249 252 253 254 256 258 260 261 261 262 263 263 262 262 263 264 263 263 263 262
312 315 314 315 317 316 309 290 270 257 252 246 240 234 229 226 226 228 232 234 238 241 244 245 248 250 252 253 253 252 255 257 259 261 263 263 262 263 264 264 264 264 264 264 263
313 315 319 319 321 324 313 292 272 258 248 242 237 231 226 223 222 225 229 233 237 239 244 245 247 250 253 254 255 254 256 256 259 262 263 265 266 267 265 265 265 264 265 265 265
Height
10934 10940 10947 10954 10959 10965 10970 10975 10979 10983 10987 10990 10993 10996 10997 11002 11003 11007 11008 11010 11011 11011 11009 11010 11011 11011 11008 11008 11007 11006 11005 11007 11006 11002 10999 10995 10997 10999 11000 11001 11001 11000 10999 10999 10999
10930 10936 10942 10950 10955 10961 10966 10971 10976 10980 10984 10988 10991 10994 10996 11000 11002 11007 11010 11012 11013 11014 11012 11012 11011 11012 11012 11012 11010 11011 11010 11010 11011 11012 11007 11002 11001 11007 11007 11007 11005 11004 11005 11005 11004
10926 10933 10939 10945 10951 10956 10961 10966 10972 10976 10981 10985 10990 10992 10994 10997 11001 11005 11009 11013 11013 11014 11015 11015 11014 11014 11013 11014 11016 11016 11013 11013 11015 11016 11015 11013 11012 11014 11013 11011 11011 11010 11009 11008 11006
10923 10930 10936 10941 10947 10952 10957 10962 10968 10973 10977 10982 10987 10990 10992 10995 10998 11004 11008 11011 11015 11014 11016 11017 11017 11017 11017 11018 11017 11020 11018 11016 11017 11019 11020 11022 11021 11020 11019 11017 11016 11014 11013 11012 11013
10919 10926 10932 10937 10942 10948 10953 10957 10963 10968 10972 10977 10983 10986 10989 10992 10995 11001 11005 11008 11012 11014 11017 11017 11018 11017 11018 11019 11021 11018 11019 11018 11019 11021 11021 11024 11026 11022 11021 11020 11021 11018 11017 11017 11017
10914 10922 10928 10933 10939 10944 10948 10952 10957 10963 10968 10972 10977 10982 10985 10988 10992 10995 11002 11006 11008 11010 11013 11014 11018 11018 11018 11020 11021 11020 11021 11020 11021 11023 11023 11024 11025 11024 11023 11023 11021 11021 11021 11020 11018
10910 10917 10923 10929 10934 10939 10944 10948 10953 10957 10963 10967 10971 10976 10981 10985 10988 10992 10996 11001 11005 11009 11010 11013 11012 11016 11018 11020 11020 11018 11020 11020 11021 11022 11021 11022 11022 11023 11024 11025 11025 11023 11021 11022 11020
10905 10911 10918 10924 10929 10934 10939 10944 10948 10952 10956 10962 10966 10970 10975 10979 10983 10988 10991 10996 10999 11002 11006 11008 11010 11011 11015 11018 11018 11019 11019 11018 11018 11019 11020 11021 11022 11022 11023 11025 11025 11024 11023 11023 11023
10899 10906 10912 10917 10923 10929 10934 10938 10943 10947 10951 10955 10959 10963 10968 10973 10977 10982 10987 10991 10995 10999 11002 11004 11007 11009 11010 11013 11015 11016 11017 11018 11019 11018 11018 11019 11020 11021 11022 11024 11024 11024 11023 11022 11023
10894 10900 10906 10911 10916 10923 10928 10932 10936 10940 10944 10947 10951 10956 10961 10964 10969 10973 10979 10984 10989 10993 10995 10999 11003 11005 11007 11008 11010 11012 11013 11015 11016 11016 11017 11018 11019 11019 11020 11021 11021 11022 11023 11022 11021
10890 10895 10900 10905 10911 10917 10922 10926 10929 10932 10936 10940 10945 10949 10954 10958 10962 10965 10970 10975 10980 10986 10989 10991 10995 10998 11001 11002 11005 11007 11009 11010 11013 11014 11015 11015 11017 11017 11016 11017 11017 11019 11021 11022 11022
10887 10890 10894 10898 10904 10911 10914 10918 10920 10923 10927 10931 10935 10941 10946 10949 10953 10957 10961 10965 10971 10976 10981 10984 10986 10989 10992 10995 10997 11000 11001 11003 11006 11010 11011 11012 11013 11014 11015 11015 11014 11013 11015 11017 11018
10884 10886 10889 10893 10898 10903 10904 10907 10909 10914 10918 10924 10927 10932 10936 10941 10944 10947 10951 10956 10960 10966 10971 10976 10979 10981 10979 10985 10987 10989 10994 10996 11000 11001 11004 11007 11008 11010 11009 11010 11009 11010 11011 11011 11012
10881 10882 10885 10888 10891 10894 10895 10898 10899 10905 10908 10912 10915 10922 10925 10930 10935 10938 10942 10947 10951 10955 10959 10964 10969 10971 10974 10974 10979 10981 10983 10987 10990 10992 10995 10999 11002 11005 11004 11003 11005 11006 11007 11005 11008
10877 10878 10880 10882 10883 10886 10887 10887 10889 10896 10898 10900 10904 10908 10913 10917 10921 10926 10931 10935 10941 10946 10948 10954 10958 10960 10964 10966 10969 10973 10975 10974 10979 10982 10984 10989 10992 10996 10998 10997 10998 10999 11000 11000 11000
10874 10874 10873 10874 10873 10875 10876 10877 10879 10883 10884 10887 10891 10894 10898 10903 10907 10911 10916 10921 10928 10933 10936 10942 10946 10950 10952 10953 10956 10962 10964 10967 10966 10969 10976 10980 10979 10985 10986 10989 10990 10992 10991 10993 10992
10870 10870 10869 10868 10866 10867 10867 10868 10870 10870 10873 10877 10880 10883 10886 10888 10893 10896 10901 10906 10914 10918 10921 10926 10931 10934 10938 10940 10943 10947 10949 10953 10958 10959 10963 10971 10972 10974 10976 10977 10978 10979 10980 10982 10984
10866 10864 10863 10862 10861 10859 10859 10858 10856 10856 10862 10865 10867 10870 10872 10872 10874 10880 10884 10888 10896 10900 10903 10909 10914 10916 10922 10923 10927 10931 10931 10936 10941 10945 10950 10957 10964 10964 10965 10967 10966 10968 10968 10968 10974
10861 10860 10857 10854 10851 10848 10847 10846 10843 10845 10847 10845 10847 10853 10857 10857 10861 10864 10868 10872 10878 10882 10886 10890 10896 10898 10903 10906 10911 10913 10915 10917 10921 10927 10932 10942 10947 10951 10953 10954 10954 10954 10955 10958 10962
10850 10847 10845 10841 10838 10835 10832 10828 10826 10828 10830 10828 10831 10835 10836 10840 10844 10848 10853 10856 10859 10865 10869 10872 10875 10879 10884 10890 10891 10893 10899 10901 10904 10909 10915 10922 10927 10931 10933 10936 10936 10939 10941 10943 10945
10835 10833 10829 10824 10819 10816 10812 10809 10805 10805 10806 10808 10810 10815 10817 10820 10825 10831 10835 10838 10841 10845 10853 10856 10860 10862 10867 10871 10875 10878 10880 10883 10885 10890 10895 10899 10906 10912 10912 10915 10919 10921 10925 10926 10928
10821 10815 10810 10805 10800 10794 10790 10784 10779 10775 10774 10777 10782 10789 10794 10801 10806 10814 10817 10818 10823 10828 10834 10839 10842 10845 10851 10855 10858 10861 10862 10865 10865 10868 10873 10879 10884 10890 10892 10895 10897 10898 10901 10902 10907
10807 10798 10790 10783 10776 10770 10762 10752 10745 10737 10732 10736 10745 10755 10765 10778 10790 10797 10799 10802 10808 10811 10815 10818 10822 10827 10833 10837 10839 10842 10845 10847 10850 10851 10854 10861 10867 10869 10873 10876 10877 10879 10880 10883 10885
10791 10780 10769 10759 10749 10739 10726 10712 10704 10699 10698 10702 10711 10723 10739 10755 10769 10776 10780 10786 10793 10795 10797 10800 10804 10808 10814 10819 10825 10828 10829 10832 10833 10835 10834 10842 10845 10848 10849 10850 10853 10858 10861 10862 10865
10772 10761 10749 10734 10721 10708 10694 10679 10673 10670 10671 10679 10686 10700 10715 10731 10749 10758 10763 10770 10775 10778 10782 10783 10789 10796 10802 10807 10811 10812 10812 10814 10814 10814 10816 10819 10821 10825 10826 10828 10831 10833 10836 10839 10842
10755 10744 10730 10715 10699 10681 10664 10655 10649 10650 10651 10660 10667 10682 10696 10712 10727 10734 10742 10752 10757 10764 10766 10771 10779 10785 10789 10791 10795 10796 10796 10796 10797 10796 10797 10798 10800 10799 10803 10806 10809 10811 10812 10815 10818
10742 10730 10716 10698 10679 10662 10646 10637 10635 10635 10641 10648 10654 10665 10676 10690 10703 10719 10731 10740 10745 10751 10748 10759 10768 10774 10777 10777 10781 10785 10783 10782 10782 10780 10780 10777 10774 10777 10780 10783 10786 10789 10791 10791 10793